period_start,C,m1,H,J0,J1,J2,J3,J4,J5,JA,JB,JC,JD,JJ,JK,JN,#
2018-02-05 00:02:12,0.73,6.22,1.00,16.23,19.47,22.97,14.72,49.12,1042.61,2053.00,1834.17,1812.21,2086.76,600.15,625.73,8.54,0000 0000 0000 0000 000000
2018-02-05 00:07:14,0.71,6.25,1.00,16.22,19.46,22.96,14.62,48.97,1042.51,2053.00,1828.32,1807.41,2081.14,599.90,625.52,8.59,0000 0000 0000 0000 000000
2018-02-05 00:12:15,0.66,6.29,1.00,16.22,19.45,22.97,14.55,48.94,1042.50,2053.00,1822.61,1802.98,2076.07,599.79,625.32,8.65,0000 0000 0000 0000 000000
2018-02-05 00:17:16,0.61,6.32,1.00,16.22,19.44,22.95,14.65,49.02,1042.53,2053.00,1817.39,1798.97,2071.52,600.26,625.80,8.70,0000 0000 0000 0000 000000
2018-02-05 00:22:17,0.65,6.35,1.00,16.21,19.44,22.95,14.68,48.98,1042.56,2053.00,1811.99,1794.74,2066.73,600.02,625.61,8.75,0000 0000 0000 0000 000000
2018-02-05 00:27:19,0.70,6.38,1.00,16.21,19.43,22.96,14.71,49.07,1042.51,2053.01,1806.22,1790.33,2061.56,600.15,625.69,8.80,0000 0000 0000 0000 000000
2018-02-05 00:32:20,0.60,6.42,1.00,16.19,19.42,22.94,14.69,49.08,1042.51,2053.01,1800.97,1786.25,2056.90,600.06,625.65,8.85,0000 0000 0000 0000 000000
2018-02-05 00:37:22,0.48,6.44,1.00,16.17,19.42,22.92,14.65,49.02,1042.51,2053.02,1796.88,1782.99,2053.21,599.91,625.45,8.90,0000 0000 0000 0000 000000
2018-02-05 00:42:23,0.49,6.47,1.00,16.17,19.42,22.91,14.62,49.02,1042.50,2053.02,1793.00,1779.82,2049.46,599.95,625.61,8.95,0000 0000 0000 0000 000000
2018-02-05 00:47:24,0.49,6.49,1.00,16.15,19.41,22.91,14.79,49.15,1042.50,2053.00,1789.12,1776.50,2045.89,600.22,626.02,9.00,0000 0000 0000 0000 000000
2018-02-05 00:52:25,0.63,6.52,1.00,16.14,19.40,22.90,14.58,49.12,1042.50,2053.01,1784.42,1772.63,2041.45,599.89,625.65,9.05,0000 0000 0000 0000 000000
2018-02-05 00:57:27,0.71,6.55,1.00,16.14,19.39,22.89,14.67,49.06,1042.49,2053.02,1778.82,1768.21,2036.36,600.07,625.79,9.10,0000 0000 0000 0000 000000
2018-02-05 01:02:28,0.77,6.59,1.00,16.14,19.39,22.89,14.62,48.93,1042.49,2053.01,1772.74,1763.32,2030.80,599.93,625.58,9.15,0000 0000 0000 0000 000000
2018-02-05 01:07:29,0.82,6.63,1.00,16.14,19.39,22.87,14.68,49.18,1042.46,2053.01,1766.24,1758.19,2024.94,600.38,625.98,9.20,0000 0000 0000 0000 000000
2018-02-05 01:12:31,0.82,6.68,1.00,16.14,19.37,22.87,14.67,49.37,1042.40,2053.01,1759.56,1752.95,2019.05,600.11,625.68,9.25,0000 0000 0000 0000 000000
2018-02-05 01:17:32,0.85,6.72,1.00,16.13,19.37,22.87,14.61,49.33,1042.21,2053.02,1752.94,1747.72,2013.02,599.78,625.36,9.30,0000 0000 0000 0000 000000
2018-02-05 01:22:34,0.86,6.76,1.00,16.14,19.35,22.87,14.64,49.17,1042.09,2053.02,1746.21,1742.38,2006.78,600.09,625.70,9.35,0000 0000 0000 0000 000000
2018-02-05 01:27:35,0.81,6.81,1.00,16.14,19.34,22.84,14.58,49.16,1042.12,2053.02,1739.51,1737.24,2001.00,600.26,625.68,9.40,0000 0000 0000 0000 000000
2018-02-05 01:32:36,0.75,6.84,1.00,16.12,19.34,22.84,14.51,49.17,1042.13,2053.04,1733.54,1732.52,1995.70,599.46,624.98,9.45,0000 0000 0000 0000 000000
2018-02-05 01:37:38,0.75,6.88,1.00,16.09,19.32,22.85,14.61,49.20,1042.06,2053.08,1727.88,1727.99,1990.34,599.66,625.19,9.50,0000 0000 0000 0000 000000
2018-02-05 01:42:39,0.79,6.92,1.00,16.09,19.32,22.84,14.64,49.20,1042.03,2053.12,1721.88,1723.20,1984.76,599.85,625.45,9.55,0000 0000 0000 0000 000000
2018-02-05 01:47:40,0.76,6.96,1.00,16.08,19.32,22.83,14.68,49.26,1042.01,2053.12,1715.86,1718.46,1979.47,599.86,625.40,9.60,0000 0000 0000 0000 000000
2018-02-05 01:52:42,0.78,7.00,1.00,16.08,19.32,22.81,14.65,49.21,1042.01,2053.14,1710.02,1713.83,1974.15,599.95,625.48,9.65,0000 0000 0000 0000 000000
2018-02-05 01:57:43,0.82,7.04,1.00,16.08,19.30,22.80,14.67,49.17,1042.01,2053.13,1703.88,1708.90,1968.53,599.86,625.43,9.70,0000 0000 0000 0000 000000
2018-02-05 02:02:44,0.86,7.08,1.00,16.07,19.29,22.80,14.65,49.13,1042.01,2053.21,1697.47,1703.81,1962.73,599.63,625.30,9.75,0000 0000 0000 0000 000000
2018-02-05 02:07:46,0.81,7.12,1.00,16.07,19.29,22.79,14.70,49.17,1042.01,2053.20,1691.27,1698.91,1957.11,599.99,625.70,9.80,0000 0000 0000 0000 000000
2018-02-05 02:12:47,0.73,7.16,1.00,16.07,19.29,22.79,14.66,49.20,1042.01,2053.19,1685.56,1694.33,1951.96,599.83,625.39,9.85,0000 0000 0000 0000 000000
2018-02-05 02:17:49,0.65,7.20,1.00,16.05,19.29,22.79,14.64,49.44,1042.01,2053.42,1680.76,1690.49,1947.56,599.89,625.54,9.90,0000 0000 0000 0000 000000
2018-02-05 02:22:50,0.64,7.23,1.00,16.04,19.28,22.77,14.65,49.44,1042.01,2053.58,1676.22,1686.87,1943.37,600.11,625.78,9.95,0000 0000 0000 0000 000000
2018-02-05 02:27:51,0.59,7.26,1.00,16.03,19.27,22.76,14.72,49.48,1042.01,2053.41,1671.80,1683.19,1939.14,599.87,625.50,10.00,0000 0000 0000 0000 000000
2018-02-05 02:32:53,0.70,7.29,1.00,16.02,19.27,22.76,14.64,49.47,1042.01,2053.38,1666.85,1679.20,1934.57,600.00,625.51,10.05,0000 0000 0000 0000 000000
2018-02-05 02:37:55,0.69,7.33,1.00,16.02,19.27,22.76,14.70,49.48,1042.01,2053.59,1662.01,1675.23,1930.02,599.94,625.59,10.10,0000 0000 0000 0000 000000
2018-02-05 02:42:56,0.62,7.36,1.00,16.04,19.27,22.75,14.62,49.55,1042.01,2053.51,1657.29,1671.43,1925.66,600.15,625.81,10.15,0000 0000 0000 0000 000000
2018-02-05 02:47:57,0.59,7.39,1.00,16.04,19.27,22.74,14.70,49.59,1042.00,2053.45,1652.87,1667.89,1921.59,600.09,625.63,10.20,0000 0000 0000 0000 000000
2018-02-05 02:52:58,0.58,7.42,1.00,16.03,19.27,22.76,14.56,49.61,1042.00,2053.57,1648.77,1664.53,1917.85,599.85,625.55,10.25,0000 0000 0000 0000 000000
2018-02-05 02:58:00,0.58,7.45,1.00,16.04,19.26,22.73,14.68,49.54,1042.01,2053.54,1644.57,1661.12,1913.82,600.00,625.66,10.30,0000 0000 0000 0000 000000
2018-02-05 03:03:01,0.59,7.48,1.00,16.04,19.25,22.75,14.71,49.63,1042.00,2053.42,1640.26,1657.64,1909.84,600.17,625.76,10.35,0000 0000 0000 0000 000000
2018-02-05 03:08:02,0.65,7.51,1.00,16.05,19.24,22.73,14.65,49.59,1041.95,2053.43,1635.73,1653.94,1905.60,599.97,625.54,10.40,0000 0000 0000 0000 000000
2018-02-05 03:13:03,0.70,7.55,1.00,16.05,19.24,22.74,14.63,49.60,1041.94,2053.41,1630.96,1650.12,1901.22,600.02,625.59,10.45,0000 0000 0000 0000 000000
2018-02-05 03:18:05,0.63,7.58,1.00,16.04,19.24,22.72,14.64,49.89,1041.79,2053.45,1626.27,1646.42,1897.05,600.11,625.71,10.50,0000 0000 0000 0000 000000
2018-02-05 03:23:06,0.63,7.61,1.00,16.03,19.24,22.71,14.61,49.76,1041.63,2053.61,1622.08,1642.90,1892.98,599.69,625.08,10.55,0000 0000 0000 0000 000000
2018-02-05 03:28:08,0.61,7.64,1.00,16.02,19.24,22.71,14.63,49.80,1041.68,2053.53,1617.72,1639.36,1888.90,599.80,625.27,10.60,0000 0000 0000 0000 000000
2018-02-05 03:33:09,0.63,7.68,1.00,16.00,19.24,22.71,14.69,49.67,1041.60,2053.68,1613.61,1635.92,1884.83,599.83,625.23,10.65,0000 0000 0000 0000 000000
2018-02-05 03:38:11,0.57,7.71,1.00,16.00,19.24,22.70,14.62,49.53,1041.55,2053.36,1609.27,1632.36,1880.79,599.99,625.58,10.70,0000 0000 0000 0000 000000
2018-02-05 03:43:12,0.66,7.74,1.00,16.01,19.24,22.71,14.70,49.72,1041.52,2053.48,1604.86,1628.88,1876.86,600.24,625.70,10.76,0000 0000 0000 0000 000000
2018-02-05 03:48:13,0.59,7.77,1.00,16.01,19.23,22.70,14.68,49.66,1041.52,2053.47,1600.69,1625.44,1872.89,599.97,625.50,10.81,0000 0000 0000 0000 000000
2018-02-05 03:53:15,0.68,7.80,1.00,16.02,19.22,22.70,14.61,49.51,1041.52,2053.49,1596.36,1621.79,1868.65,600.03,625.48,10.86,0000 0000 0000 0000 000000
2018-02-05 03:58:16,0.70,7.83,1.00,16.02,19.22,22.70,14.70,49.60,1041.52,2053.41,1591.45,1617.97,1864.31,600.22,625.51,10.91,0000 0000 0000 0000 000000
2018-02-05 04:03:17,0.68,7.87,1.00,16.02,19.22,22.69,14.66,49.55,1041.52,2053.27,1586.54,1614.11,1859.90,599.86,625.31,10.96,0000 0000 0000 0000 000000
2018-02-05 04:08:18,0.70,7.90,1.00,16.01,19.22,22.68,14.68,49.67,1041.52,2053.24,1581.65,1610.26,1855.55,600.38,625.82,11.01,0000 0000 0000 0000 000000
2018-02-05 04:13:20,0.71,7.94,1.00,16.00,19.20,22.68,14.63,49.66,1041.52,2053.41,1576.99,1606.51,1851.32,599.77,625.23,11.06,0000 0000 0000 0000 000000
2018-02-05 04:18:21,0.69,7.97,1.00,15.99,19.19,22.69,14.57,49.60,1041.52,2053.32,1572.13,1602.76,1847.07,599.73,625.13,11.11,0000 0000 0000 0000 000000
2018-02-05 04:23:22,0.72,8.01,1.00,16.01,19.19,22.69,14.62,49.58,1041.52,2053.33,1567.25,1598.99,1842.60,599.83,625.35,11.16,0000 0000 0000 0000 000000
2018-02-05 04:28:23,0.76,8.05,1.00,15.99,19.19,22.66,14.72,49.61,1041.50,2053.29,1562.13,1594.99,1837.91,600.21,625.67,11.21,0000 0000 0000 0000 000000
2018-02-05 04:33:25,0.79,8.09,1.00,16.00,19.18,22.68,14.56,49.52,1041.51,2053.31,1556.86,1590.84,1833.19,599.88,625.35,11.26,0000 0000 0000 0000 000000
2018-02-05 04:38:26,0.77,8.13,1.00,16.01,19.17,22.68,14.62,49.60,1041.38,2053.27,1551.68,1586.74,1828.53,599.98,625.36,11.31,0000 0000 0000 0000 000000
2018-02-05 04:43:27,0.80,8.17,1.00,16.00,19.17,22.67,14.62,49.58,1041.37,2053.36,1546.58,1582.70,1823.83,599.76,625.16,11.36,0000 0000 0000 0000 000000
2018-02-05 04:48:28,0.76,8.20,1.00,16.00,19.17,22.67,14.71,49.78,1041.49,2053.34,1541.33,1578.58,1819.13,600.05,625.48,11.41,0000 0000 0000 0000 000000
2018-02-05 04:53:30,0.81,8.25,1.00,15.98,19.16,22.66,14.73,49.80,1041.51,2053.52,1536.27,1574.52,1814.52,600.11,625.54,11.46,0000 0000 0000 0000 000000
2018-02-05 04:58:31,0.78,8.28,1.00,15.99,19.15,22.65,14.56,49.77,1041.50,2053.71,1531.46,1570.47,1809.91,599.68,625.09,11.51,0000 0000 0000 0000 000000
2018-02-05 05:03:33,0.77,8.32,1.00,15.98,19.14,22.66,14.63,49.67,1041.42,2053.81,1526.57,1566.54,1805.32,599.98,625.33,11.56,0000 0000 0000 0000 000000
2018-02-05 05:08:34,0.76,8.36,1.00,15.98,19.14,22.64,14.73,49.76,1041.40,2053.84,1521.61,1562.62,1800.89,600.00,625.41,11.61,0000 0000 0000 0000 000000
2018-02-05 05:13:35,0.74,8.40,1.00,15.97,19.14,22.63,14.62,49.69,1041.43,2053.78,1516.77,1558.76,1796.45,599.91,625.28,11.66,0000 0000 0000 0000 000000
2018-02-05 05:18:37,0.70,8.44,1.00,15.97,19.14,22.64,14.69,49.67,1041.33,2053.60,1512.08,1554.95,1792.13,600.02,625.38,11.71,0000 0000 0000 0000 000000
2018-02-05 05:23:38,0.75,8.47,1.00,15.98,19.14,22.62,14.59,49.67,1041.29,2053.67,1507.42,1551.19,1787.83,600.00,625.33,11.76,0000 0000 0000 0000 000000
2018-02-05 05:28:40,0.72,8.51,1.00,15.96,19.14,22.63,14.64,49.82,1041.43,2053.62,1502.67,1547.44,1783.59,599.82,625.29,11.81,0000 0000 0000 0000 000000
2018-02-05 05:33:41,0.69,8.55,1.00,15.97,19.13,22.64,14.69,49.70,1041.41,2053.54,1498.10,1543.82,1779.46,600.20,625.56,11.86,0000 0000 0000 0000 000000
2018-02-05 05:38:42,0.73,8.58,1.00,15.96,19.12,22.63,14.66,49.77,1041.40,2053.44,1493.51,1540.09,1775.16,599.79,625.20,11.91,0000 0000 0000 0000 000000
2018-02-05 05:43:44,0.83,8.62,1.00,15.96,19.12,22.64,14.65,49.83,1041.37,2053.61,1488.53,1536.19,1770.59,600.08,625.46,11.96,0000 0000 0000 0000 000000
2018-02-05 05:48:45,0.79,8.66,1.00,15.95,19.12,22.62,14.63,49.89,1041.33,2053.57,1483.49,1532.38,1766.03,600.00,625.41,12.01,0000 0000 0000 0000 000000
2018-02-05 05:53:46,0.78,8.70,1.00,15.95,19.12,22.63,14.60,49.97,1041.38,2053.40,1478.45,1528.36,1761.46,600.02,625.45,12.06,0000 0000 0000 0000 000000
2018-02-05 05:58:48,0.85,8.74,1.00,15.94,19.11,22.62,14.61,49.85,1041.35,2053.57,1473.36,1524.29,1756.79,599.80,625.24,12.11,0000 0000 0000 0000 000000
2018-02-05 06:03:49,0.79,8.79,1.00,15.95,19.10,22.62,14.60,49.88,1041.25,2053.45,1468.42,1520.24,1752.15,600.11,625.44,12.16,0000 0000 0000 0000 000000
2018-02-05 06:08:50,0.85,8.83,1.00,15.95,19.09,22.61,14.66,49.98,1041.23,2053.76,1463.47,1516.33,1747.64,600.29,625.59,12.21,0000 0000 0000 0000 000000
2018-02-05 06:13:51,0.81,8.87,1.00,15.95,19.09,22.60,14.70,50.04,1041.10,2053.89,1458.61,1512.42,1743.13,600.30,625.61,12.26,0000 0000 0000 0000 000000
2018-02-05 06:18:53,0.79,8.91,1.00,15.94,19.09,22.59,14.57,50.02,1041.06,2053.81,1453.72,1508.54,1738.70,599.59,624.91,12.31,0000 0000 0000 0000 000000
2018-02-05 06:23:54,0.79,8.95,1.00,15.94,19.09,22.59,14.64,49.93,1041.04,2053.85,1448.96,1504.72,1734.28,599.90,625.06,12.36,0000 0000 0000 0000 000000
2018-02-05 06:28:55,0.81,8.99,1.00,15.96,19.07,22.58,14.58,49.97,1041.03,2053.86,1444.08,1500.82,1729.85,599.96,625.28,12.41,0000 0000 0000 0000 000000
2018-02-05 06:33:56,0.79,9.03,1.00,15.95,19.07,22.57,14.65,49.92,1041.03,2053.74,1439.26,1496.94,1725.61,599.87,625.10,12.46,0000 0000 0000 0000 000000
2018-02-05 06:38:58,0.80,9.07,1.00,15.94,19.07,22.58,14.68,50.01,1041.03,2053.74,1434.48,1493.13,1721.31,600.10,625.31,12.51,0000 0000 0000 0000 000000
2018-02-05 06:43:59,0.77,9.11,1.00,15.92,19.07,22.57,14.58,50.19,1041.04,2053.72,1429.72,1489.35,1716.94,599.62,624.94,12.56,0000 0000 0000 0000 000000
2018-02-05 06:49:00,0.82,9.15,1.00,15.93,19.05,22.57,14.70,50.19,1041.03,2053.74,1424.96,1485.53,1712.61,600.35,625.62,12.61,0000 0000 0000 0000 000000
2018-02-05 06:54:02,0.81,9.19,1.00,15.94,19.04,22.56,14.63,50.16,1041.03,2053.94,1420.28,1481.83,1708.34,599.78,625.03,12.66,0000 0000 0000 0000 000000
2018-02-05 06:59:03,0.80,9.23,1.00,15.90,19.04,22.57,14.74,50.26,1041.03,2053.90,1415.64,1478.06,1704.06,599.97,625.33,12.71,0000 0000 0000 0000 000000
2018-02-05 07:04:04,0.76,9.27,1.00,15.92,19.04,22.54,14.59,50.11,1041.03,2053.95,1411.14,1474.49,1699.94,599.60,624.96,12.76,0000 0000 0000 0000 000000
2018-02-05 07:09:06,0.74,9.31,1.00,15.90,19.04,22.55,14.66,50.24,1041.02,2053.96,1406.78,1471.04,1695.87,599.57,624.87,12.81,0000 0000 0000 0000 000000
2018-02-05 07:14:07,0.77,9.35,1.00,15.90,19.04,22.57,14.67,50.23,1041.03,2053.97,1402.38,1467.57,1691.80,599.76,625.13,12.86,0000 0000 0000 0000 000000
2018-02-05 07:19:08,0.76,9.38,1.00,15.89,19.04,22.54,14.82,50.27,1040.97,2053.98,1398.05,1464.06,1687.73,600.45,625.85,12.91,0000 0000 0000 0000 000000
2018-02-05 07:24:10,0.74,9.42,1.00,15.91,19.04,22.53,14.63,50.17,1040.88,2053.96,1393.88,1460.61,1683.69,600.01,625.35,12.97,0000 0000 0000 0000 000000
2018-02-05 07:29:11,0.75,9.46,1.00,15.91,19.04,22.54,14.67,50.31,1040.97,2053.97,1389.56,1457.13,1679.71,599.79,625.09,13.02,0000 0000 0000 0000 000000
2018-02-05 07:34:12,0.76,9.50,1.00,15.91,19.04,22.56,14.57,50.27,1041.03,2053.97,1385.20,1453.64,1675.78,599.86,625.16,13.07,0000 0000 0000 0000 000000
2018-02-05 07:39:13,0.74,9.54,1.00,15.92,19.04,22.56,14.73,50.48,1041.02,2053.97,1380.99,1450.21,1671.90,600.16,625.44,13.12,0000 0000 0000 0000 000000
2018-02-05 07:44:15,0.75,9.58,1.00,15.90,19.04,22.56,14.72,50.48,1041.02,2053.97,1376.90,1446.83,1667.93,599.96,625.23,13.17,0000 0000 0000 0000 000000
2018-02-05 07:49:16,0.75,9.61,1.00,15.91,19.04,22.55,14.69,50.44,1041.02,2053.96,1372.59,1443.41,1664.04,600.07,625.40,13.22,0000 0000 0000 0000 000000
2018-02-05 07:54:17,0.75,9.65,1.00,15.92,19.04,22.54,14.78,50.55,1041.02,2053.97,1368.39,1440.01,1660.26,600.20,625.47,13.27,0000 0000 0000 0000 000000
2018-02-05 07:59:18,0.74,9.69,1.00,15.93,19.04,22.53,14.65,50.42,1041.01,2053.98,1364.35,1436.68,1656.42,599.88,625.10,13.32,0000 0000 0000 0000 000000
2018-02-05 08:04:19,0.74,9.73,1.00,15.93,19.05,22.55,14.66,50.39,1040.97,2053.96,1360.32,1433.29,1652.54,599.71,624.88,13.37,0000 0000 0000 0000 000000
2018-02-05 08:09:21,0.73,9.76,1.00,15.94,19.06,22.54,14.66,50.36,1040.83,2053.96,1356.40,1429.98,1648.72,600.12,625.27,13.42,0000 0000 0000 0000 000000
2018-02-05 08:14:22,0.76,9.80,1.00,15.92,19.07,22.53,14.63,50.41,1040.97,2053.93,1352.28,1426.64,1644.89,600.01,625.27,13.47,0000 0000 0000 0000 000000
2018-02-05 08:19:24,0.74,9.84,1.00,15.92,19.07,22.55,14.63,50.35,1040.85,2053.91,1348.15,1423.34,1641.07,599.93,625.12,13.52,0000 0000 0000 0000 000000
2018-02-05 08:24:25,0.70,9.87,1.00,15.90,19.07,22.57,14.65,50.51,1040.81,2053.76,1344.18,1420.01,1637.23,600.04,625.28,13.57,0000 0000 0000 0000 000000
2018-02-05 08:29:26,0.73,9.91,1.00,15.91,19.07,22.54,14.70,50.41,1040.61,2053.51,1340.29,1416.70,1633.45,600.25,625.43,13.62,0000 0000 0000 0000 000000
2018-02-05 08:34:28,0.74,9.95,1.00,15.92,19.07,22.54,14.74,50.63,1040.54,2053.47,1336.33,1413.46,1629.67,600.47,625.46,13.67,0000 0000 0000 0000 000000
2018-02-05 08:39:29,0.72,9.99,1.00,15.93,19.06,22.52,14.66,50.45,1040.54,2053.43,1332.29,1410.19,1625.95,599.89,624.91,13.72,0000 0000 0000 0000 000000
2018-02-05 08:44:31,0.74,10.02,1.00,15.94,19.06,22.55,14.75,50.52,1040.54,2053.56,1328.33,1407.05,1622.26,600.08,625.09,13.77,0000 0000 0000 0000 000000
2018-02-05 08:49:32,0.73,10.06,1.00,15.92,19.05,22.54,14.54,50.43,1040.54,2053.50,1324.45,1403.88,1618.59,599.56,624.45,13.82,0000 0000 0000 0000 000000
2018-02-05 08:54:33,0.78,10.10,1.00,15.90,19.04,22.54,14.69,50.50,1040.42,2053.57,1320.57,1400.73,1614.94,600.19,625.22,13.87,0000 0000 0000 0000 000000
2018-02-05 08:59:35,0.77,10.14,1.00,15.91,19.04,22.51,14.71,50.52,1040.19,2053.58,1316.59,1397.45,1611.21,599.90,624.59,13.92,0000 0000 0000 0000 000000
2018-02-05 09:04:36,0.77,10.18,1.00,15.94,19.04,22.54,14.64,50.58,1040.17,2053.50,1312.39,1394.08,1607.35,600.07,624.77,13.97,0000 0000 0000 0000 000000
2018-02-05 09:09:37,0.75,10.22,1.00,15.94,19.04,22.53,14.46,50.48,1040.10,2053.61,1308.38,1390.88,1603.66,599.75,624.44,14.02,0000 0000 0000 0000 000000
2018-02-05 09:14:39,0.72,10.25,1.00,15.94,19.04,22.54,14.67,50.60,1040.08,2053.45,1304.58,1387.73,1600.12,599.72,624.35,14.07,0000 0000 0000 0000 000000
2018-02-05 09:19:40,0.75,10.29,1.00,15.94,19.04,22.52,14.57,50.59,1040.07,2053.53,1300.72,1384.62,1596.71,599.81,624.50,14.12,0000 0000 0000 0000 000000
2018-02-05 09:24:41,0.73,10.33,1.00,15.93,19.04,22.52,14.61,50.55,1040.07,2053.79,1297.13,1381.55,1593.14,600.07,624.79,14.17,0000 0000 0000 0000 000000
2018-02-05 09:29:43,0.70,10.36,1.00,15.94,19.04,22.53,14.61,50.50,1040.07,2053.71,1293.61,1378.57,1589.60,599.79,624.38,14.22,0000 0000 0000 0000 000000
2018-02-05 09:34:44,0.70,10.40,1.00,15.94,19.04,22.52,14.62,50.33,1040.09,2053.56,1290.01,1375.54,1586.13,599.90,624.53,14.27,0000 0000 0000 0000 000000
2018-02-05 09:39:45,0.70,10.44,1.00,15.93,19.04,22.53,14.69,50.45,1040.08,2053.36,1286.36,1372.44,1582.61,599.87,624.56,14.32,0000 0000 0000 0000 000000
2018-02-05 09:44:46,0.71,10.47,1.00,15.93,19.04,22.54,14.75,50.48,1040.11,2053.18,1282.64,1369.45,1579.13,600.36,625.03,14.37,0000 0000 0000 0000 000000
2018-02-05 09:49:48,0.71,10.50,1.00,15.96,19.04,22.55,14.62,50.47,1040.09,2053.15,1279.05,1366.42,1575.68,599.67,624.31,14.42,0000 0000 0000 0000 000000
2018-02-05 09:54:49,0.72,10.54,1.00,15.97,19.04,22.55,14.73,50.52,1040.07,2053.13,1275.58,1363.42,1572.20,599.89,624.48,14.47,0000 0000 0000 0000 000000
2018-02-05 09:59:50,0.69,10.58,1.00,15.98,19.04,22.56,14.73,50.68,1040.06,2053.08,1272.09,1360.41,1568.72,600.13,624.75,14.52,0000 0000 0000 0000 000000
2018-02-05 10:04:52,0.73,10.61,1.00,15.97,19.05,22.55,14.63,50.50,1040.06,2053.05,1268.46,1357.45,1565.29,599.99,624.60,14.57,0000 0000 0000 0000 000000
2018-02-05 10:09:53,0.73,10.65,1.00,15.97,19.06,22.54,14.60,50.57,1039.98,2053.06,1264.94,1354.50,1561.92,599.71,624.31,14.62,0000 0000 0000 0000 000000
2018-02-05 10:14:55,0.72,10.69,1.00,15.97,19.07,22.56,14.67,50.48,1039.88,2053.04,1261.35,1351.54,1558.51,599.96,624.50,14.67,0000 0000 0000 0000 000000
2018-02-05 10:19:56,0.74,10.72,1.00,15.97,19.07,22.56,14.64,50.48,1039.68,2053.08,1257.77,1348.58,1555.10,599.73,624.23,14.72,0000 0000 0000 0000 000000
2018-02-05 10:24:57,0.75,10.76,1.00,15.98,19.07,22.55,14.68,50.54,1039.58,2053.03,1254.07,1345.55,1551.63,599.96,624.25,14.77,0000 0000 0000 0000 000000
2018-02-05 10:29:58,0.72,10.80,1.00,15.95,19.07,22.56,14.59,50.67,1039.58,2053.06,1250.47,1342.72,1548.25,600.17,624.49,14.82,0000 0000 0000 0000 000000
2018-02-05 10:35:00,0.72,10.83,1.00,15.94,19.07,22.56,14.59,50.65,1039.57,2053.06,1246.97,1339.94,1544.98,599.90,624.26,14.87,0000 0000 0000 0000 000000
2018-02-05 10:40:01,0.70,10.87,1.00,15.94,19.07,22.56,14.67,50.58,1039.53,2053.09,1243.51,1337.17,1541.74,600.03,624.37,14.92,0000 0000 0000 0000 000000
2018-02-05 10:45:02,0.72,10.91,1.00,15.96,19.07,22.57,14.62,50.58,1039.26,2053.09,1240.12,1334.33,1538.46,599.88,624.03,14.97,0000 0000 0000 0000 000000
2018-02-05 10:50:03,0.70,10.94,1.00,15.97,19.07,22.56,14.62,50.48,1039.16,2053.13,1236.66,1331.50,1535.31,600.18,624.25,15.02,0000 0000 0000 0000 000000
2018-02-05 10:55:05,0.72,10.98,1.00,15.99,19.07,22.57,14.62,50.73,1039.12,2053.06,1233.12,1328.63,1532.16,599.99,623.96,15.07,0000 0000 0000 0000 000000
2018-02-05 11:00:06,0.72,11.01,1.00,15.98,19.07,22.57,14.71,50.73,1039.08,2053.05,1229.70,1325.80,1528.92,599.97,623.99,15.12,0000 0000 0000 0000 000000
2018-02-05 11:05:08,0.70,11.05,1.00,15.97,19.07,22.55,14.66,50.68,1039.08,2053.08,1226.37,1323.05,1525.70,600.17,624.13,15.18,0000 0000 0000 0000 000000
2018-02-05 11:10:09,0.71,11.09,1.00,15.99,19.07,22.56,14.55,50.64,1039.08,2053.07,1223.07,1320.25,1522.47,599.77,623.86,15.23,0000 0000 0000 0000 000000
2018-02-05 11:15:10,0.71,11.12,1.00,16.02,19.07,22.58,14.51,50.64,1039.03,2053.05,1219.71,1317.47,1519.31,599.52,623.36,15.28,0000 0000 0000 0000 000000
2018-02-05 11:20:12,0.70,11.16,1.00,16.01,19.09,22.57,14.59,50.63,1038.85,2053.05,1216.40,1314.74,1516.18,599.72,623.56,15.33,0000 0000 0000 0000 000000
2018-02-05 11:25:13,0.69,11.19,1.00,16.01,19.09,22.57,14.61,50.58,1038.78,2053.05,1213.21,1312.01,1513.03,599.71,623.54,15.38,0000 0000 0000 0000 000000
2018-02-05 11:30:14,0.73,11.23,1.00,16.01,19.09,22.59,14.60,50.72,1038.65,2053.02,1209.89,1309.24,1509.85,599.64,623.28,15.43,0000 0000 0000 0000 000000
2018-02-05 11:35:16,0.72,11.26,1.00,15.99,19.09,22.59,14.68,50.66,1038.60,2053.03,1206.57,1306.46,1506.66,600.01,623.61,15.48,0000 0000 0000 0000 000000
2018-02-05 11:40:17,0.70,11.30,1.00,16.01,19.09,22.58,14.64,50.77,1038.59,2053.02,1203.28,1303.76,1503.57,599.79,623.42,15.53,0000 0000 0000 0000 000000
2018-02-05 11:45:18,0.70,11.33,1.00,16.01,19.10,22.60,14.66,50.71,1038.59,2053.01,1200.08,1301.12,1500.48,600.09,623.62,15.58,0000 0000 0000 0000 000000
2018-02-05 11:50:20,0.68,11.37,1.00,16.03,19.12,22.60,14.59,50.73,1038.58,2053.01,1196.97,1298.49,1497.48,600.25,623.82,15.63,0000 0000 0000 0000 000000
2018-02-05 11:55:21,0.68,11.40,1.00,16.04,19.12,22.59,14.60,50.76,1038.45,2053.02,1193.89,1295.95,1494.53,599.68,623.18,15.68,0000 0000 0000 0000 000000
2018-02-05 12:00:23,0.71,11.44,1.00,16.06,19.12,22.61,14.53,50.75,1038.20,2053.02,1190.77,1293.32,1491.56,599.59,622.90,15.73,0000 0000 0000 0000 000000
2018-02-05 12:05:24,0.68,11.47,1.00,16.06,19.12,22.59,14.68,50.81,1038.12,2053.01,1187.61,1290.73,1488.52,599.89,623.12,15.78,0000 0000 0000 0000 000000
2018-02-05 12:10:25,0.72,11.51,1.00,16.09,19.12,22.61,14.62,50.88,1038.10,2053.00,1184.36,1288.06,1485.47,599.69,622.75,15.83,0000 0000 0000 0000 000000
2018-02-05 12:15:26,0.69,11.55,1.00,16.09,19.13,22.61,14.67,50.82,1038.10,2053.00,1181.22,1285.44,1482.48,600.33,623.53,15.88,0000 0000 0000 0000 000000
2018-02-05 12:20:27,0.66,11.58,1.00,16.12,19.14,22.60,14.65,50.74,1038.09,2053.00,1178.23,1283.00,1479.60,600.10,623.20,15.93,0000 0000 0000 0000 000000
2018-02-05 12:25:29,0.68,11.61,1.00,16.10,19.14,22.61,14.61,50.78,1038.03,2053.00,1175.17,1280.48,1476.76,600.01,623.22,15.98,0000 0000 0000 0000 000000
2018-02-05 12:30:30,0.67,11.65,1.00,16.13,19.14,22.62,14.65,50.80,1037.81,2053.00,1172.11,1278.09,1473.87,600.03,622.95,16.03,0000 0000 0000 0000 000000
2018-02-05 12:35:32,0.64,11.68,1.00,16.14,19.14,22.62,14.64,50.88,1037.65,2053.00,1169.17,1275.67,1471.17,599.97,622.77,16.08,0000 0000 0000 0000 000000
2018-02-05 12:40:33,0.66,11.71,1.00,16.14,19.15,22.64,14.61,50.87,1037.62,2053.01,1166.21,1273.28,1468.51,599.97,622.66,16.13,0000 0000 0000 0000 000000
2018-02-05 12:45:34,0.67,11.75,1.00,16.14,19.16,22.63,14.62,50.96,1037.61,2053.00,1163.25,1270.86,1465.76,599.82,622.61,16.18,0000 0000 0000 0000 000000
2018-02-05 12:50:35,0.64,11.78,1.00,16.14,19.17,22.63,14.63,51.04,1037.55,2053.00,1160.40,1268.43,1463.00,599.92,622.62,16.23,0000 0000 0000 0000 000000
2018-02-05 12:55:37,0.68,11.81,1.00,16.15,19.17,22.64,14.64,51.03,1037.26,2053.00,1157.52,1266.04,1460.23,600.23,622.93,16.28,0000 0000 0000 0000 000000